To NAV CANADA Home Page Login to a new session Search on AWWS site Feedback and Comments Disclaimer Vers la page française équivalente Tips FAQ What's new on the site To the Forecasts and Observations / NOTAM section To "File a Flight Plan" website Publications and other links Update of the User's profile FIC Telephone Numbers My Weather Data Folder Route Weather Data Regional Weather Data Local Weather Data To the Forecasts and Observations / NOTAM section
Request Generated 08/22/2017 at 01:43:54 UTC . Weather information available at that time is displayed.

METAR/TAF

BERENS RIVER/MB    (show WxCam)

LWIS CYBV 220100Z AUTO 32009G15KT 19/10 A2985=
LWIS CYBV 220000Z AUTO 32014G20KT 20/09 A2985=
LWIS CYBV 212300Z AUTO 33010G18KT 21/09 A2984=

CYBV - No TAF is issued for this station

Your time UTC time
Weather data provided by Environment Canada and NAV CANADA